Regional Weather Roundup
Issued by NWS San Diego, CA

Home | Current Version | Previous Version | Text Only | Print | Product List | Glossary On
Versions: 1 2 3 4 5 6 7 8 9 10 11 12 13 14 15 16 17 18 19 20 21 22 23 24 25 26 27 28 29 30 31 32 33 34 35 36 37 38 39 40 41 42 43 44 45 46 47 48 49 50
000
ASUS46 KSGX 250910
RWRSGX

SAN DIEGO HOURLY WEATHER ROUNDUP
NATIONAL WEATHER SERVICE SAN DIEGO CA
200 AM PDT FRI JUL 25 2014

NOTE: "FAIR" INDICATES FEW OR NO CLOUDS BELOW 12,000 FEET WITH NO
SIGNIFICANT WEATHER AND/OR OBSTRUCTIONS TO VISIBILITY.

CAZ042-043-060-061-PZZ750-775-251000-

GREATER SAN DIEGO AREA

CITY           SKY/WX    TMP DP  RH WIND       PRES   REMARKS
LINDBERGH FLD  CLOUDY    70  64  81 S13       29.89F
POINT LOMA       N/A     66  64  92 SE13        N/A
NATIONAL CITY    N/A     70  66  87 SW8       29.89S
CHULA VISTA      N/A     69  67  91 CALM      29.82F
IMPERIAL BEACH CLOUDY    69  65  86 S7        29.88F
BROWN FIELD    CLEAR     66  64  93 S3        29.88F
MIRAMAR MCAS   MOCLDY    69  63  81 S10       29.88F
MONTGOMERY FLD CLOUDY    69  65  86 S10       29.89S

$$

NORTH SAN DIEGO COUNTY

CITY           SKY/WX    TMP DP  RH WIND       PRES   REMARKS
CAMP PENDLETON CLOUDY    70  65  84 S7        29.87S
OCEANSIDE AP   CLOUDY    71  66  84 VRB5      29.86S
VISTA            N/A     70  66  88 CALM      29.85R
CARLSBAD       CLOUDY    70  66  87 SE6       29.87S
DEL MAR          N/A     69  66  89 W3        29.89F
LA JOLLA SCRIP   N/A     69  67  93 S5        29.85S
FALLBROOK        N/A     69  69 100 CALM      29.87R
ESCONDIDO        N/A     71  66  83 CALM      29.88S
SAN MARCOS       N/A     69  65  85 W2        29.85R
POWAY            N/A     69  64  85 S1        29.88S
R. PENASQUITOS   N/A     69  66  88 CALM      29.87S

$$

EAST SAN DIEGO COUNTY

CITY           SKY/WX    TMP DP  RH WIND       PRES   REMARKS
RAMONA         CLEAR     68  60  75 S5        29.91S
SANTEE LAKES     N/A     68  65  88 CALM      29.89S
GILLESPIE FLD  CLOUDY    70  66  88 SW3       29.90S
LA MESA          N/A     69  66  92 SW5       29.82F
JAMUL            N/A     67  64  91 CALM      29.84F
DESCANSO N       N/A     71  43  36 E1        29.68F
MT. LAGUNA OBS   N/A     74   9   8 CALM      29.76S
CAMPO            N/A     70  49  47 CALM      29.93F

$$

ORANGE COUNTY AND THE LOS ANGELES BASIN

CITY           SKY/WX    TMP DP  RH WIND       PRES   REMARKS
JOHN WAYNE AP  CLEAR     75  63  66 CALM      29.85S
LAGUNA BEACH     N/A     70  67  89 S5        29.81F
LAKE FOREST FR   N/A     69  61  74 CALM      29.74S
SANTA ANA        N/A     71  66  83 CALM      29.80S
HUNTINGTON BCH   N/A     69  67  93 SE1       29.87R
LOS ALAMITOS   MOCLDY    69  65  87 SW3       29.85S
FULLERTON      CLEAR     72  65  78 S3        29.84S
LONG BEACH     CLEAR     69  64  84 S5        29.85R
L.A. AP        PTCLDY    71  59  65 E5        29.85R
L.A. DOWNTOWN  CLEAR     71  59  65 CALM      29.84S

$$

THE INLAND EMPIRE

CITY           SKY/WX    TMP DP  RH WIND       PRES   REMARKS
CORONA         CLEAR     71  63  76 W7        29.86S
CHINO          CLEAR     72  60  66 W8        29.87R
ONTARIO        CLEAR     75  55  49 W9        29.86S
RIVERSIDE AP   CLEAR     75  55  49 W5        29.86S
RIV CYN CREST    N/A     77  62  60 CALM      29.84S
MORENO VALLEY    N/A     75  52  44 SE2       27.98S
MARCH ARB      PTCLDY    75  56  51 SE3       29.90S
HORSETHIEF CYN   N/A     74  48  39 CALM      29.84F
PERRIS           N/A     75  59  58 S5          N/A
MENIFEE          N/A     75  62  64 S3        29.94R
HEMET EAST       N/A     76  48  37 CALM      29.80S
FRENCH VALLEY  FAIR      70  59  68 SE3       29.90S
TEMECULA         N/A     71  63  76 CALM      29.85S

$$

SAN BERNARDINO AND RIVERSIDE COUNTY MOUNTAINS

CITY           SKY/WX    TMP DP  RH WIND       PRES   REMARKS
BIG BEAR AP    CLEAR     63  37  39 CALM      30.25F
BIG BEAR SHEA    N/A     68  36  30 CALM      29.73F
ANGELUS OAKS     N/A     69  43  38 MISG      29.66F
PINE COVE        N/A     73  41  31 CALM      29.75F

$$

SOUTHERN DESERT INCLUDING THE COACHELLA VALLEY

CITY           SKY/WX    TMP DP  RH WIND       PRES   REMARKS
PALM SPRINGS   CLEAR     94  50  22 CALM      29.75R
THOUSAND PALMS   N/A     94  44  17 NW3       29.69R
PALM DESERT      N/A     94  57  28 CALM      28.27F
THERMAL        PTCLDY    93  61  34 SE7       29.68R
BLYTHE         CLOUDY    95  59  30 S14       29.73F
IMPERIAL AP    CLOUDY    93  73  52 SE12      29.68S HX 102
EL CENTRO NAS  CLOUDY    92  69  47 E5        29.68S HX  97
YUMA AZ        PTCLDY    93  71  48 SE12      29.73S HX 100
MEXICALI       MOCLDY    90  70  51 E8        29.71  HX  95

$$

UPPER DESERT

CITY           SKY/WX    TMP DP  RH WIND       PRES   REMARKS
VICTORVILLE AP CLEAR     79  36  21 SW5       29.93S
HESPERIA         N/A     82  20  10 W2        29.86F
APPLE VALLEY     N/A     77  19  11 CALM      30.01S
GRAY BUTTE AP  NOT AVBL
PALMDALE       CLEAR     75  35  23 CALM      29.91F
LANCASTER      CLEAR     80  34  19 NW10      29.90S
EDWARDS AFB    CLEAR     74  43  32 E6        29.87F
DAGGETT        CLEAR     86  32  14 W7        29.85R
29 PALMS N     PTCLDY    90  44  20 N5        29.90F
NEEDLES        CLEAR     98  54  22 W12       29.76F HX  96

$$

REGIONAL REPORTS

CITY           SKY/WX    TMP DP  RH WIND       PRES   REMARKS
SANTA BARBARA  CLEAR     68  59  73 NE6       29.79S
SANDBERG       CLEAR     74  37  26 SW12      30.06F
MT. WILSON       N/A     73  -6   4 MISG        N/A
LAS VEGAS NV   MOCLDY    96  51  21 S16       29.79F
PHOENIX AZ     MOCLDY    96  61  31 W9        29.83S HX  96
TIJUANA        CLEAR     68  63  83 S3        29.91F
ENSENADA NW      N/A     66  32  28 NW3       29.86F

$$

OFFSHORE ISLANDS

CITY           SKY/WX    TMP DP  RH WIND       PRES   REMARKS
CATALINA ARPT  CLEAR     73  53  49 S7        29.90S
SAN NICOLAS IS CLEAR    N/A N/A N/A W22G29    29.84S

$$

MARINE AND OFFSHORE BUOY REPORTS

STATION/POSITION SKY/WX   TEMP    WIND        PRES    SWELL
                          AIR SEA DIR/SP/G            HT/PER/DIR
                          (F)     (DEG/KT/KT) (MB)    (FT/S/D)
TANNER BANKS               65 66  300/ 16/ 19 1011.5S   7/320/ 8
S CLEMENTE BASIN           69 71  270/ 10/ 10 1011.1S   5/290/ 8
SAN NICOLAS IS.               67                N/A     2/280/11
SO. S. ROSA ISLA           64 65  300/ 19/ 25 1009.7F   3/ 8
W. S. BARBARA CH           60 58  310/ 16/ 19 1009.5F   5/310/ 8
M. S. BARBARA CH           65     260/ 10       N/A
S. MONICA BASIN            67 68  200/  4/  6 1010.0R   5/270/ 7
S PEDRO CHANNEL               68                N/A
DANA POINT                    69                N/A     2/190/15
CMP PENDLETON NS              70                N/A     2/230/20
OCEANSIDE OFFSHR              71                N/A     2/190/15
TORREY PINES OTR              72                N/A     2/200/18
LA JOLLA 1                 71 72  180/  7/  9 1011.7R
MISSION BAY BUOY              71                N/A     2/200/15
SAN DIEGO BAY                 73              1012.2F
POINT LOMA SOUTH              71                N/A     2/190/15

$$




USA.gov is the U.S. government's official web portal to all federal, state and local government web resources and services.